Weather History for Hartford, CT

Change the Weather History Date:

Monday, July 8, 2013

  Actual Average Record
Temperature  
Mean Temperature 82 °F -  
Max Temperature 91 °F 83 °F 97 °F (1936)
Min Temperature 73 °F 62 °F 33 °F (1996)
Cooling Degree Days 16    
Growing Degree Days 32 (Base 50)    
Moisture  
Dew Point 69 °F    
Average Humidity 69    
Maximum Humidity 94    
Minimum Humidity 45    
Precipitation  
Precipitation 0.04 in - - ()
Sea Level Pressure  
Sea Level Pressure 29.97 in    
Wind  
Wind Speed 4 mph (WSW)    
Max Wind Speed 9 mph    
Max Gust Speed 17 mph    
Visibility 10 miles    
Events      
Averages and records for this station are not official NWS values.
T = Trace of Precipitation, MM = Missing Value Source: NWS Daily Summary

Daily Weather History Graph

Daily Weather History Graph

Search for Another Location

Airport:

Trip Planner

Search our weather history database for the weather conditions in past years. The results will help you decide how hot, cold, wet, or windy it might be!

Date:

Astronomy

Jul. 08, 2013 Rise Set
Actual Time 5:24 AM EDT 8:27 PM EDT
Civil Twilight 4:50 AM EDT 9:00 PM EDT
Nautical Twilight 4:07 AM EDT 9:43 PM EDT
Astronomical Twilight 3:16 AM EDT 10:33 PM EDT
Moon 5:51 AM EDT (7/8) 8:26 PM EDT (7/8)
Length of Visible Light 16h 10m
Length of Day
15h 03m
New Moon, 0% of the Moon is Illuminated
Jul 8
New Moon
Jul 15
First Quarter
Jul 22
Full
Jul 29
Last Quarter
Aug 6
New

Hourly Weather History & Observations

Time (EDT) Temp. Heat Index Dew Point Humidity Pressure Visibility Wind Dir Wind Speed Gust Speed Precip Events Conditions
12:53 AM 78.1 °F - 73.9 °F 87% 29.93 in 10.0 mi South 4.6 mph - N/A   Clear
1:53 AM 81.0 °F 83.8 °F 68.0 °F 65% 29.94 in 10.0 mi SW 4.6 mph - N/A   Clear
2:53 AM 75.0 °F - 73.0 °F 94% 29.92 in 10.0 mi South 4.6 mph - N/A   Clear
3:53 AM 75.9 °F - 72.0 °F 87% 29.92 in 10.0 mi South 3.5 mph - N/A   Clear
4:53 AM 73.9 °F - 71.1 °F 91% 29.94 in 10.0 mi South 4.6 mph - N/A   Clear
5:53 AM 75.0 °F - 68.0 °F 79% 29.95 in 10.0 mi Calm Calm - N/A   Clear
6:53 AM 75.0 °F - 66.0 °F 73% 29.97 in 10.0 mi WSW 4.6 mph - N/A   Partly Cloudy
7:53 AM 77.0 °F - 66.9 °F 71% 29.98 in 10.0 mi Calm Calm - N/A   Clear
8:53 AM 80.1 °F 82.7 °F 68.0 °F 67% 29.99 in 10.0 mi Calm Calm - N/A   Clear
9:53 AM 82.0 °F 85.5 °F 69.1 °F 65% 29.98 in 10.0 mi Variable 4.6 mph - N/A   Clear
10:53 AM 84.9 °F 88.8 °F 69.1 °F 59% 29.99 in 10.0 mi Variable 4.6 mph - N/A   Clear
11:53 AM 86.0 °F 88.8 °F 66.9 °F 53% 29.99 in 10.0 mi West 6.9 mph - N/A   Scattered Clouds
12:53 PM 89.1 °F 92.9 °F 68.0 °F 50% 29.98 in 10.0 mi West 5.8 mph - N/A   Mostly Cloudy
1:53 PM 89.1 °F 91.3 °F 66.0 °F 46% 29.97 in 10.0 mi WSW 5.8 mph 17.3 mph N/A   Scattered Clouds
2:53 PM 90.0 °F 92.4 °F 66.0 °F 45% 29.96 in 10.0 mi West 9.2 mph - N/A   Partly Cloudy
3:53 PM 90.0 °F 92.8 °F 66.9 °F 46% 29.95 in 10.0 mi WNW 8.1 mph - N/A   Scattered Clouds
4:53 PM 90.0 °F 92.4 °F 66.0 °F 45% 29.94 in 10.0 mi SW 4.6 mph - N/A   Scattered Clouds
5:53 PM 86.0 °F 90.7 °F 70.0 °F 59% 29.94 in 10.0 mi NNE 5.8 mph - N/A   Mostly Cloudy
6:53 PM 84.9 °F 90.1 °F 71.1 °F 63% 29.95 in 10.0 mi ENE 3.5 mph - N/A   Overcast
7:53 PM 82.9 °F 87.0 °F 70.0 °F 65% 29.96 in 10.0 mi ENE 5.8 mph - N/A   Overcast
8:53 PM 75.9 °F - 73.0 °F 91% 29.99 in 10.0 mi Calm Calm - 0.04 in   Overcast
9:53 PM 75.9 °F - 69.1 °F 79% 30.03 in 10.0 mi WNW 6.9 mph - N/A   Overcast
10:53 PM 73.0 °F - 68.0 °F 84% 30.03 in 10.0 mi Calm Calm - N/A   Mostly Cloudy
11:53 PM 73.0 °F - 69.1 °F 87% 30.01 in 10.0 mi Calm Calm - N/A   Clear